MIDAS 4 DEB, 27478

Orbit data source: Space-Track

MIDAS 4 DEB, 27478 is space debris in LEO originally from a launch on Sat, 21 Oct 1961 UTC launched from the Air Force Western Test Range (AFWTR). Debris objects in space refer to the collection of defunct objects orbiting the Earth. Examples of debris include non-operational satellites, rocket bodies, and fragments generated from explosions, collisions, or faulty payload assembly.

Loading next visibility...
Identifier
27478, 1961-028H
Orbit
LEO
Country
Flag of USUS
Related business
Manufacturer
Unknown
Mission
Spacecraft
Bus & Motor
Unknown
Mass
Unknown
Launch date (UTC)
1961-10-21 (65 years ago)
Launch vehicle
Unknown
Launch site
Air Force Western Test Range (AFWTR)
Object type
Payload
Rocket body
Debris
Shape & HBR
Unknown shape, 1.1 m
Radar Cross Section
Medium (>0.1 m² and <1 m²)

Expand to show TLE details & history
Last TLE update: 23 hours ago

TLE from 23 hours ago
0 MIDAS 4 DEB
1 27478U 61028H   26126.19873778 -.00000001  00000-0  11655-2 0  9994
2 27478  95.8516 209.3667 0263969  10.4305  12.5746  8.66662423587159
Epoch: 2026-05-06T04:46Z
TLE epoch observation values (Epoch: 2026-05-06T04:46:10.944Z)
Latitude
23.57006°
Longitude
-88.79381°
Altitude
3,378.033 km
Speed
6.476 km/s
True Right ascension
13h 47m 15s
True Declination
23° 28' 41"
Sunlit
Object was in daylight at epoch
Visualization orbit readout
Latitude
Unknown
Longitude
Unknown
Altitude
Unknown
Speed
Unknown
Apparent Right ascension
Unknown
Apparent Declination
Unknown
Sunlit
N/A
Visualization observer readout
Local Sidereal Time
11:56:09
Azimuth
Unknown
Elevation
Unknown
Doppler factor
Unknown
Orbital elements
Apogee altitude
3,895.517 km
Perigee altitude
3,367.081 km
Semi-major axis
10,009.436 km
Eccentricity
0.0264
Inclination
95.8516°
RAAN
209.3667°
Arg. of periapsis
10.4305°
True anomaly
13.25501°
Mean anomaly
12.5746°
Eccentric anomaly
12.91257°
Mean motion
2.16735 °/min
Orbital period
166.1 mins
BSTAR
0.0011655
Loading maneuver chart data...
Computing Atmospheric mass density...
Loading historical data...
Loading historical data...
Loading historical data...
Loading historical data...
Loading historical data...
Loading historical data...
Loading historical data...

Documentation

Showing up to 5 results
|